Orbital Elements at Epoch 2459200.5 (2020-Dec-17.0) TDB
Reference: JPL 18 (heliocentric ecliptic J2000)
Element | Value | Uncertainty (1-sigma) | Units |
e | .07496633750927451 | 4.0934e-08 | |
a | 3.059149552221384 | 2.4793e-08 | au |
q | 2.82981631439821 | 1.3118e-07 | au |
i | 7.913538344467581 | 5.2757e-06 | deg |
node | 321.265156678671 | 3.0813e-05 | deg |
peri | 80.93230098488554 | 4.9386e-05 | deg |
M | 279.6303462192328 | 4.1608e-05 | deg |
tp | 2459636.803891681528 (2022-Feb-26.30389168) | 0.00022878 | TDB |
period | 1954.337161060876 5.35 | 2.3758e-05 6.505e-08 | d yr |
n | .1842056770821369 | 2.2394e-09 | deg/d |
Q | 3.288482790044558 | 2.6652e-08 | au |
|
| | Orbit Determination Parameters
Additional Information
|